Погода в Подольске

Россия / Оренбургская область     52°49′57″N   53°35′30″E
темп.,
°C
ветер,
м/с
пор.,
м/с
влажн.,
%
обл.,
%
осадки,
мм/ч
давл.,
гПа
погр.,
м
15 августа, пн
пн1523:00+18св512484 0.0 1019306
02:00+15ссв39593 0.0 1019166
05:00+14ссв410620 0.0 1019206
08:00+15св58595 0.0 1019251
11:00+24всв56425 0.0 1019822
14:00+28всв552912 0.0 10191877
17:00+29всв55304 0.0 10192312
20:00+25св594212 0.0 1019300
16 августа, вт
вт1623:00+20всв613555 0.0 1020370
02:00+18всв412505 0.0 1021284
05:00+16всв39600 0.0 1022160
08:00+18всв47561 0.0 1023213
11:00+25всв44363 0.0 1023836
14:00+28всв33304 0.0 10221883
17:00+28всв44285 0.0 10212119
20:00+24св593845 0.0 1021296
17 августа, ср
ср1723:00+19всв5124799 0.0 1023254
02:00+16всв395262 0.0 1023161
05:00+14св22575 0.0 102326
08:00+17всв36522 0.0 1023167
11:00+24всв44362 0.0 1022637
14:00+29всв322852 0.0 10201551
17:00+29св3225100 0.0 10192158
20:00+25св593661 0.0 1019205
18 августа, чт
чт1823:00+20всв5125198 0.0 1020284
02:00+17всв4115899 0.0 1020246
05:00+16всв3759100 0.0 1020125
08:00+17всв4958100 0.0 1021237
11:00+24всв6835100 0.0 1020832
14:00+28всв6726100 0.0 10201591
17:00+27всв6629100 0.0 10191730
20:00+24св4842100 0.0 1020233
19 августа, пт
пт1923:00+20всв3655100 0.0 102198
02:00+18всв3966100 0.0 1022170
05:00+16всв3770100 0.0 1023124
08:00+17в3765100 0.0 1024253
11:00+22в5643100 0.0 1025985
14:00+25всв4532100 0.0 10251697
17:00+26всв342494 0.0 10241980
20:00+22св2331100 0.0 102527